DateTime,F1_A11,F1_S11,BsB_S11,BsG_S11,BsR_S11,BbsB_S11,BbsG_S11,BbsR_S11,BaB_A11,BaG_A11,BaR_A11,T_S11,U_S11,P_S11,T1_A11
2016-06-17T00:00:00Z,0000380,20000600,,,,,,,,,,25.7,04.6,0667.2,34.5
2016-06-17T00:01:00Z,0000380,20000600,,,,,,,,,,25.7,04.6,0667.2,34.5
2016-06-17T00:02:00Z,0000380,20000600,,,,,,,,,,25.8,04.6,0667.2,34.5
2016-06-17T00:03:00Z,0000380,60000600,,,,,,,,,,25.8,04.6,0667.2,34.5
2016-06-17T00:04:00Z,0000380,40000600,0000.76,0000.61,0000.49,-000.19,0000.09,-000.02,0000.05,-000.07,-000.53,25.9,04.6,0668.0,34.5
2016-06-17T00:05:00Z,0000380,00000600,0000.51,0000.92,0000.09,0000.71,-000.11,-000.21,-000.07,0000.17,0000.24,26.0,04.4,0668.1,34.5
2016-06-17T00:06:00Z,0000380,00000600,0001.41,0000.34,0000.61,0000.17,0000.13,0000.33,0000.14,-000.13,-000.22,26.0,04.4,0668.1,34.5
2016-06-17T00:07:00Z,0000380,00000600,-000.85,0000.65,-000.02,0000.11,-000.22,-000.13,0000.02,0000.10,0000.21,26.0,04.4,0668.2,34.5
2016-06-17T00:08:00Z,0000380,00000600,0000.17,0000.37,0000.55,0000.27,0000.19,-000.11,0000.14,0000.10,0000.26,26.0,04.4,0668.1,34.5
2016-06-17T00:09:00Z,0000380,00000600,0001.56,0000.49,0000.02,0000.19,0000.00,-000.28,0000.11,-000.06,-000.10,26.0,04.3,0668.2,34.5
2016-06-17T00:10:00Z,0000380,00000600,0000.87,0000.69,-000.05,0000.28,-000.06,-000.40,-000.01,0000.07,-000.11,26.0,04.3,0668.2,34.5
2016-06-17T00:11:00Z,0000380,00000600,0000.37,0001.32,0000.33,-000.08,0000.22,0000.22,0000.14,0000.11,0000.23,26.0,04.3,0668.2,34.5
2016-06-17T00:12:00Z,0000380,00000600,0001.13,0000.23,0000.51,-000.36,-000.28,0000.58,-000.05,0000.16,-000.40,26.0,04.3,0668.2,34.5
2016-06-17T00:13:00Z,0000380,00000600,0000.78,0000.77,0000.41,-000.28,-000.14,0000.19,0000.13,-000.02,0000.18,26.0,04.2,0668.2,34.5
2016-06-17T00:14:00Z,0000380,00000600,0001.83,0000.29,0000.30,-000.44,0000.22,0000.13,0000.13,0000.05,0000.49,26.1,04.3,0668.2,34.5
2016-06-17T00:15:00Z,0000380,00000600,0000.39,-000.03,0000.23,-000.22,0000.16,0000.28,-000.11,-000.08,-000.30,26.1,04.2,0668.2,34.6
2016-06-17T00:16:00Z,0000380,00000600,0000.58,0000.58,0000.36,0000.55,0000.24,0000.17,0000.10,0000.17,-000.18,26.1,04.2,0668.2,34.6
2016-06-17T00:17:00Z,0000380,00000600,0000.97,0000.14,0000.33,-000.03,0000.11,0000.11,0000.10,-000.09,0000.15,26.1,04.1,0668.2,34.6
2016-06-17T00:18:00Z,0000380,00000600,0000.76,0000.14,0000.07,0000.21,-000.30,0000.13,0000.12,0000.12,0000.32,26.2,04.1,0668.2,34.6
2016-06-17T00:19:00Z,0000380,00000600,0001.14,0001.34,0000.70,0000.35,-000.36,0000.16,-000.08,0000.08,-000.29,26.1,04.1,0668.2,34.6
2016-06-17T00:20:00Z,0000380,00000600,0001.51,0000.52,0000.37,0000.30,0000.17,0000.21,0000.16,0000.14,0000.42,26.1,04.2,0668.2,34.6
2016-06-17T00:21:00Z,0000380,00000600,-000.02,0000.50,0000.35,0000.24,-000.42,0000.35,0000.22,0000.03,-000.06,26.2,04.2,0668.2,34.6
2016-06-17T00:22:00Z,0000380,00000600,0000.74,0000.20,0000.53,0000.41,-000.02,0000.30,-000.03,0000.14,-000.01,26.2,04.1,0668.2,34.6
2016-06-17T00:23:00Z,0000380,00000600,0000.75,0000.97,0000.35,0000.09,0000.35,0000.16,0000.03,0000.05,0000.04,26.2,04.2,0668.2,34.6
2016-06-17T00:24:00Z,0000380,00000600,-000.02,0000.57,0000.23,-000.03,0000.02,-000.06,0000.10,-000.01,-000.06,26.2,04.2,0668.2,34.6
2016-06-17T00:25:00Z,0000380,00000600,0001.36,0000.30,0000.23,-000.11,-000.19,-000.14,0000.16,-000.07,0000.10,26.2,04.1,0668.2,34.6
2016-06-17T00:26:00Z,0000380,00000600,0000.96,0000.00,0000.74,0000.28,0000.03,0000.51,-000.15,0000.07,-000.21,26.1,04.1,0668.2,34.6
2016-06-17T00:27:00Z,0000380,00000600,0000.40,0000.02,0000.62,0000.87,0000.36,0000.05,0000.11,0000.12,-000.03,26.1,04.1,0668.2,34.6
2016-06-17T00:28:00Z,0000380,00000600,0001.63,0000.96,0000.48,0000.39,0000.11,0000.33,-000.08,0000.03,0000.31,26.1,04.1,0668.2,34.6
2016-06-17T00:29:00Z,0000380,00000600,0001.18,0000.51,0000.33,0000.33,0000.28,0000.14,0000.23,0000.11,0000.01,26.1,04.2,0668.2,34.6
2016-06-17T00:30:00Z,0000380,00000600,0000.58,-000.04,0000.62,-000.35,-000.03,0000.08,0000.11,0000.32,0000.25,26.1,04.1,0668.2,34.6
2016-06-17T00:31:00Z,0000380,00000600,0000.23,0000.86,0000.88,0000.14,0000.24,0000.24,0000.33,0000.01,-000.13,26.0,04.1,0668.3,34.6
2016-06-17T00:32:00Z,0000380,00000600,0000.72,0000.20,0000.15,0000.32,0000.16,0000.08,-000.15,0000.01,-000.15,26.0,04.0,0668.3,34.6
2016-06-17T00:33:00Z,0000380,00000600,0000.66,-000.30,0000.90,0000.09,-000.16,0000.03,0000.15,-000.15,0000.28,26.0,04.1,0668.2,34.6
2016-06-17T00:34:00Z,0000380,00000600,0000.31,0000.39,0000.53,0000.06,0000.16,-000.02,-000.23,0000.09,-000.35,26.0,04.1,0668.2,34.6
2016-06-17T00:35:00Z,0000380,00000600,0000.24,0000.59,0000.49,0000.96,0000.11,-000.06,0000.10,0000.10,0000.45,26.0,04.0,0668.2,34.6
2016-06-17T00:36:00Z,0000380,00000600,0000.70,0000.13,0000.18,0000.57,0000.06,0000.16,0000.16,-000.08,-000.30,26.0,04.0,0668.2,34.6
2016-06-17T00:37:00Z,0000380,00000600,0000.90,0000.19,0001.05,0000.99,0000.03,0000.33,-000.09,-000.04,-000.01,26.0,04.0,0668.2,34.6
2016-06-17T00:38:00Z,0000380,00000600,0000.57,-000.33,0000.64,0000.51,0000.41,0000.36,0000.15,-000.15,0000.31,26.0,03.9,0668.2,34.6
2016-06-17T00:39:00Z,0000380,00000600,0000.78,0000.79,0000.54,0000.06,0000.02,0000.28,-000.05,0000.08,-000.25,26.0,03.7,0668.3,34.6
2016-06-17T00:40:00Z,0000380,00000600,0000.73,0000.73,0000.88,0000.60,0000.46,0000.16,-000.05,0000.16,0000.09,26.0,03.7,0668.2,34.6
2016-06-17T00:41:00Z,0000380,00000600,0000.82,0000.37,0000.45,-000.11,0000.22,0000.16,0000.14,0000.12,0000.03,26.0,03.9,0668.2,34.6
2016-06-17T00:42:00Z,0000380,00000600,0000.22,0000.71,0000.51,0000.19,0000.05,0000.35,-000.10,-000.21,0000.18,26.0,03.8,0668.2,34.6
2016-06-17T00:43:00Z,0000380,00000600,0000.51,0000.78,0000.13,0000.36,0000.11,0000.22,0000.05,0000.08,-000.25,26.0,03.6,0668.3,34.6
2016-06-17T00:44:00Z,0000380,00000600,0001.07,0000.54,0000.72,0000.08,0000.39,0000.22,0000.19,0000.23,0000.10,26.0,03.6,0668.2,34.6
2016-06-17T00:45:00Z,0000380,00000600,0000.07,0000.10,0000.75,0000.32,0000.08,0000.09,0000.21,0000.08,0000.18,26.0,03.7,0668.2,34.5
2016-06-17T00:46:00Z,0000380,00000600,0000.35,0000.81,0000.04,0000.14,0000.20,0000.09,-000.01,0000.04,-000.07,26.0,03.7,0668.2,34.5
2016-06-17T00:47:00Z,0000380,00000600,0000.27,0000.11,0000.49,-000.24,-000.06,-000.03,-000.03,0000.09,0000.06,26.0,03.7,0668.2,34.5
2016-06-17T00:48:00Z,0000380,00000600,0001.93,0000.91,-000.12,-000.43,-000.03,0000.19,0000.07,-000.00,-000.16,26.1,03.6,0668.2,34.5
2016-06-17T00:49:00Z,0000380,00000600,0000.57,0000.65,0000.08,0000.51,0000.19,0000.27,0000.18,0000.08,0000.13,26.0,03.7,0668.2,34.5
2016-06-17T00:50:00Z,0000380,00000600,-000.30,0000.66,0000.38,0000.17,0000.41,0000.27,0000.08,0000.16,0000.18,26.1,03.6,0668.2,34.5
2016-06-17T00:51:00Z,0000380,00000600,0000.81,0000.62,0000.84,0000.33,-000.31,0000.19,0000.15,-000.09,0000.11,26.1,03.6,0668.2,34.5
2016-06-17T00:52:00Z,0000380,00000600,0000.84,0000.53,0000.68,0000.02,0000.39,0000.06,-000.01,0000.09,-000.08,26.1,03.6,0668.2,34.5
2016-06-17T00:53:00Z,0000380,00000600,0000.75,0000.28,0000.86,0000.24,-000.05,-000.02,-000.08,0000.03,-000.05,26.1,03.6,0668.2,34.5
2016-06-17T00:54:00Z,0000380,00000600,0000.53,0000.36,0000.68,0000.39,-000.38,0000.13,0000.02,0000.01,0000.24,26.1,03.4,0668.2,34.5
2016-06-17T00:55:00Z,0000380,00000600,0000.98,0000.45,-000.22,0000.09,-000.19,0000.05,0000.11,0000.00,-000.23,26.1,03.5,0668.2,34.5
2016-06-17T00:56:00Z,0000380,00000600,0000.93,0000.59,0000.80,-000.14,0000.52,-000.08,0000.02,-000.09,0000.11,26.1,03.5,0668.2,34.5
2016-06-17T00:57:00Z,0000380,40000600,,,,,,,,,,,,0668.3,34.5
2016-06-17T00:58:00Z,0000380,60000600,,,,,,,,,,26.0,03.8,0667.3,34.5
2016-06-17T00:59:00Z,0000380,20000600,,,,,,,,,,26.0,03.7,0667.3,34.5
2016-06-17T01:00:00Z,0000380,20000600,,,,,,,,,,26.0,03.6,0667.3,34.6
2016-06-17T01:01:00Z,0000380,20000600,,,,,,,,,,25.9,03.6,0667.3,34.6
2016-06-17T01:02:00Z,0000380,20000600,,,,,,,,,,25.8,03.6,0667.3,34.6
2016-06-17T01:03:00Z,0000380,60000600,,,,,,,,,,25.9,03.6,0667.4,34.6
2016-06-17T01:04:00Z,0000380,40000600,0001.27,0000.30,0000.21,-000.21,-000.05,-000.05,-000.03,0000.08,0000.02,26.0,03.4,0668.2,34.6
2016-06-17T01:05:00Z,0000380,00000600,0001.10,0001.03,0000.25,-000.02,0000.36,0000.30,-000.13,-000.19,-000.09,26.0,03.3,0668.3,34.6
2016-06-17T01:06:00Z,0000380,00000600,0000.82,0000.45,-000.05,0000.36,0000.27,0000.16,0000.20,0000.11,0000.28,26.0,03.5,0668.3,34.6
2016-06-17T01:07:00Z,0000380,00000600,0001.04,0000.13,-000.10,0000.36,0000.58,0000.35,-000.03,0000.09,-000.33,26.0,03.4,0668.3,34.6
2016-06-17T01:08:00Z,0000380,00000600,0000.60,0000.25,0000.70,0000.08,0000.06,0000.02,0000.16,0000.15,0000.51,26.0,03.3,0668.3,34.6
2016-06-17T01:09:00Z,0000380,00000600,0001.56,0000.83,0000.53,-000.73,0000.06,0000.13,-000.03,-000.14,-000.35,26.0,03.3,0668.3,34.6
2016-06-17T01:10:00Z,0000380,00000600,0001.01,0000.28,0000.70,0000.57,0000.02,0000.17,0000.06,0000.13,-000.12,26.0,03.3,0668.3,34.6
2016-06-17T01:11:00Z,0000380,00000600,0001.03,0000.16,0000.59,-000.36,-000.05,-000.21,0000.08,-000.08,0000.27,26.0,03.3,0668.3,34.6
2016-06-17T01:12:00Z,0000380,00000600,0001.94,0001.00,0000.96,0000.43,0000.24,0000.25,-000.09,0000.08,-000.06,26.0,03.3,0668.3,34.6
2016-06-17T01:13:00Z,0000380,00000600,0001.23,0000.30,0000.51,-000.17,-000.06,0000.05,0000.23,0000.19,-000.05,26.1,03.2,0668.3,34.6
2016-06-17T01:14:00Z,0000380,00000600,0001.55,0000.00,0000.29,0000.09,-000.24,-000.03,0000.07,-000.12,0000.19,26.1,03.3,0668.3,34.6
2016-06-17T01:15:00Z,0000380,00000600,0001.25,0000.47,0000.24,0000.11,0000.63,0000.09,-000.09,0000.38,0000.33,26.1,03.3,0668.3,34.6
2016-06-17T01:16:00Z,0000380,00000600,0001.40,0000.13,0000.44,-000.05,0000.33,0000.05,0000.06,0000.02,-000.43,26.2,03.2,0668.3,34.6
2016-06-17T01:17:00Z,0000380,00000600,0000.83,0000.17,0000.37,0000.05,0000.44,0000.05,0000.15,0000.04,0000.40,26.2,03.2,0668.3,34.6
2016-06-17T01:18:00Z,0000380,00000600,0001.73,0000.62,0000.49,0000.93,-000.02,0000.24,0000.24,0000.45,-000.05,26.2,03.2,0668.3,34.6
2016-06-17T01:19:00Z,0000380,00000600,0001.10,0000.93,0000.21,0000.25,-000.14,-000.06,-000.19,-000.32,0000.26,26.1,03.2,0668.3,34.6
2016-06-17T01:20:00Z,0000380,00000600,0001.05,0000.05,0000.65,0000.24,0000.27,0000.14,-000.02,0000.07,-000.52,26.1,03.2,0668.4,34.6
2016-06-17T01:21:00Z,0000380,00000600,0000.14,0000.31,0000.11,-000.24,0000.38,-000.06,0000.08,-000.20,0000.26,26.0,03.1,0668.4,34.6
2016-06-17T01:22:00Z,0000380,00000600,0000.51,0000.39,0000.12,0000.58,0000.14,-000.11,0000.17,0000.15,0000.18,26.0,03.1,0668.3,34.6
2016-06-17T01:23:00Z,0000380,00000600,0001.34,0000.20,0000.42,-000.24,-000.46,0000.27,0000.05,0000.17,-000.02,26.0,03.1,0668.3,34.6
2016-06-17T01:24:00Z,0000380,00000600,0000.34,0000.34,0000.60,-000.03,0000.05,-000.14,0000.05,-000.11,0000.04,26.0,03.1,0668.3,34.6
2016-06-17T01:25:00Z,0000380,00000600,0000.52,0000.32,0000.60,0000.36,0000.69,0000.16,-000.20,0000.06,-000.03,26.0,03.1,0668.3,34.6
2016-06-17T01:26:00Z,0000380,00000600,0000.07,0000.40,0000.28,0000.52,0000.08,0000.32,0000.23,0000.01,-000.19,26.0,03.1,0668.3,34.6
2016-06-17T01:27:00Z,0000380,00000600,0001.60,0000.49,0000.20,0000.13,-000.09,-000.08,-000.17,-000.11,-000.02,26.0,03.1,0668.3,34.6
2016-06-17T01:28:00Z,0000380,00000600,0000.83,0001.00,0000.24,-000.14,0000.27,-000.24,0000.18,0000.20,0000.54,26.0,03.0,0668.3,34.6
2016-06-17T01:29:00Z,0000380,00000600,0000.81,-000.02,0000.23,-000.03,0000.05,-000.08,0000.05,-000.08,-000.18,26.0,03.1,0668.3,34.6
2016-06-17T01:30:00Z,0000380,00000600,0001.50,0000.89,0000.47,0000.46,-000.05,0000.00,0000.12,0000.22,-000.09,26.0,03.0,0668.3,34.5
2016-06-17T01:31:00Z,0000380,00000600,0001.90,0000.87,0000.32,0000.54,0000.03,-000.21,0000.18,0000.23,0000.50,26.0,03.1,0668.3,34.5
2016-06-17T01:32:00Z,0000380,00000600,0000.15,0000.15,0000.26,0000.27,0000.41,0000.13,0000.09,0000.16,0000.04,26.0,03.1,0668.3,34.5
2016-06-17T01:33:00Z,0000380,00000600,0001.67,0000.36,0000.47,0000.13,0000.08,-000.22,0000.34,0000.49,0000.33,26.0,03.1,0668.3,34.5
2016-06-17T01:34:00Z,0000380,00000600,0001.01,-000.09,0000.50,0000.13,0000.14,-000.09,0000.02,-000.10,-000.01,26.0,03.2,0668.3,34.5
2016-06-17T01:35:00Z,0000380,00000600,0000.83,0000.50,0000.95,0000.41,-000.02,-000.03,0000.10,-000.19,-000.27,26.0,03.3,0668.3,34.5
2016-06-17T01:36:00Z,0000380,00000600,0000.61,0000.45,0000.04,0000.90,0000.11,0000.08,-000.03,0000.06,-000.04,26.0,03.2,0668.3,34.5
2016-06-17T01:37:00Z,0000380,00000600,0000.22,0000.16,0000.84,0000.17,-000.16,-000.14,-000.18,-000.10,0000.06,26.0,03.3,0668.3,34.5
2016-06-17T01:38:00Z,0000380,00000600,0000.30,-000.23,0000.99,0000.41,0000.41,0000.14,0000.22,0000.18,-000.08,26.0,03.4,0668.3,34.5
2016-06-17T01:39:00Z,0000380,00000600,-000.30,0000.04,0000.33,0000.21,0000.30,0000.11,-000.06,-000.25,-000.12,26.0,03.2,0668.3,34.5
2016-06-17T01:40:00Z,0000380,00000600,0000.59,0000.48,0000.49,0000.24,-000.33,-000.02,-000.01,0000.11,0000.07,26.0,03.1,0668.3,34.5
2016-06-17T01:41:00Z,0000380,00000600,0000.87,0000.07,0000.04,0000.05,0000.17,0000.16,0000.10,-000.01,-000.12,26.1,03.1,0668.3,34.5
2016-06-17T01:42:00Z,0000380,00000600,0000.77,-000.12,0000.11,0000.65,-000.06,0000.11,0000.04,0000.33,0000.50,26.2,03.0,0668.2,34.5
2016-06-17T01:43:00Z,0000380,00000600,0000.66,-000.02,0000.61,0000.00,-000.41,-000.25,0000.35,0000.14,-000.04,26.2,03.1,0668.2,34.5
2016-06-17T01:44:00Z,0000380,00000600,0000.61,0000.62,0000.08,0000.36,0000.30,0000.00,-000.14,0000.05,0000.13,26.2,03.3,0668.2,34.5
2016-06-17T01:45:00Z,0000380,00000600,0001.45,0000.51,-000.03,0000.14,-000.05,-000.02,0000.07,-000.03,-000.47,26.2,03.1,0668.2,34.6
2016-06-17T01:46:00Z,0000380,00000600,0001.20,0000.40,0000.19,0000.33,-000.17,0000.38,0000.07,0000.14,0000.62,26.3,03.1,0668.2,34.6
2016-06-17T01:47:00Z,0000380,00000600,0000.92,-000.03,0000.92,0000.47,-000.22,-000.02,0000.20,0000.06,-000.25,26.2,03.1,0668.2,34.6
2016-06-17T01:48:00Z,0000380,00000600,0000.92,0000.07,0000.36,-000.28,0000.06,-000.09,0000.03,0000.14,0000.10,26.3,03.1,0668.2,34.6
2016-06-17T01:49:00Z,0000380,00000600,0000.65,0000.78,0000.16,0000.02,-000.06,0000.02,-000.01,0000.10,0000.29,26.3,03.2,0668.2,34.6
2016-06-17T01:50:00Z,0000380,00000600,0001.57,0000.07,0000.82,0000.13,-000.03,0000.33,0000.15,-000.09,0000.07,26.3,03.2,0668.2,34.6
2016-06-17T01:51:00Z,0000380,00000600,0000.57,0000.91,0000.02,0000.14,0000.52,-000.43,-000.11,-000.06,-000.34,26.2,03.1,0668.2,34.6
2016-06-17T01:52:00Z,0000380,00000600,0000.52,0000.20,0000.18,0000.47,-000.17,-000.13,0000.09,0000.06,0000.30,26.2,03.1,0668.2,34.6
2016-06-17T01:53:00Z,0000380,00000600,0001.16,0000.44,0000.39,0000.63,0000.13,0000.11,-000.02,0000.24,-000.06,26.2,03.2,0668.2,34.6
2016-06-17T01:54:00Z,0000380,00000600,0001.01,-000.19,-000.11,0000.60,-000.19,0000.30,0000.23,0000.00,0000.33,26.2,03.2,0668.2,34.6
2016-06-17T01:55:00Z,0000380,00000600,0001.34,0000.72,0000.24,-000.22,0000.17,0000.25,0000.09,0000.19,-000.16,26.2,03.1,0668.2,34.6
2016-06-17T01:56:00Z,0000380,00000600,0000.62,-000.02,0000.41,-000.08,0000.24,0000.11,-000.05,-000.02,0000.17,26.2,03.2,0668.2,34.6
2016-06-17T01:57:00Z,0000380,40000600,,,,,,,,,,,,0668.2,34.6
2016-06-17T01:58:00Z,0000380,60000600,,,,,,,,,,26.0,03.4,0667.3,34.6
2016-06-17T01:59:00Z,0000380,20000600,,,,,,,,,,26.0,03.4,0667.3,34.6
2016-06-17T02:00:00Z,0000380,20000600,,,,,,,,,,26.0,03.4,0667.3,34.5
2016-06-17T02:01:00Z,0000380,20000600,,,,,,,,,,26.0,03.4,0667.3,34.5
2016-06-17T02:02:00Z,0000380,20000600,,,,,,,,,,25.9,03.4,0667.3,34.5
2016-06-17T02:03:00Z,0000380,60000600,,,,,,,,,,25.9,03.4,0667.3,34.5
2016-06-17T02:04:00Z,0000380,40000600,0000.75,0001.01,0000.52,-000.71,-000.14,0000.17,-000.25,-000.21,-000.04,25.8,03.4,0668.2,34.5
2016-06-17T02:05:00Z,0000380,00000600,0001.74,0000.92,0000.36,-000.41,0000.09,-000.02,0000.26,-000.13,-000.23,25.8,03.4,0668.2,34.5
2016-06-17T02:06:00Z,0000380,00000600,0000.45,0000.24,0000.37,-000.13,0000.16,0000.30,-000.18,0000.01,0000.14,25.8,03.4,0668.2,34.5
2016-06-17T02:07:00Z,0000380,00000600,0000.72,0000.94,0000.02,-000.14,-000.14,0000.22,0000.06,-000.02,-000.12,25.8,03.4,0668.2,34.5
2016-06-17T02:08:00Z,0000380,00000600,0001.68,0000.37,0000.13,-000.24,0000.31,0000.35,-000.21,-000.25,0000.10,25.9,03.5,0668.2,34.5
2016-06-17T02:09:00Z,0000380,00000600,0001.23,0000.55,0000.15,0000.09,0000.14,-000.06,0000.04,0000.31,0000.23,25.9,03.5,0668.2,34.5
2016-06-17T02:10:00Z,0000380,00000600,0001.34,0000.89,0000.06,0000.62,0000.05,0000.06,0000.01,-000.09,-000.35,26.0,03.4,0668.2,34.5
2016-06-17T02:11:00Z,0000380,00000600,0001.26,0000.39,0000.55,0000.09,-000.03,0000.21,-000.01,0000.21,0000.56,26.0,03.4,0668.2,34.5
2016-06-17T02:12:00Z,0000380,00000600,0001.06,0000.45,0000.12,-000.28,-000.14,0000.16,0000.26,-000.02,-000.03,26.0,03.5,0668.2,34.5
2016-06-17T02:13:00Z,0000380,00000600,0001.12,0000.54,0000.20,-000.11,-000.16,-000.06,-000.00,0000.05,0000.05,26.1,03.6,0668.2,34.5
2016-06-17T02:14:00Z,0000380,00000600,0000.56,0000.39,-000.05,0000.57,-000.05,0000.14,0000.07,0000.03,0000.16,26.1,03.6,0668.2,34.5
2016-06-17T02:15:00Z,0000380,00000600,0000.72,0000.55,0000.01,0000.02,0000.05,0000.28,0000.14,0000.40,0000.14,26.2,03.5,0668.3,34.6
2016-06-17T02:16:00Z,0000380,00000600,0001.25,0000.94,0000.29,0000.14,0000.19,-000.14,0000.09,-000.08,0000.21,26.3,03.5,0668.2,34.6
2016-06-17T02:17:00Z,0000380,00000600,0000.95,0000.64,0000.15,-000.27,-000.03,0000.19,-000.11,0000.11,-000.03,26.3,03.6,0668.2,34.6
2016-06-17T02:18:00Z,0000380,00000600,0001.24,0001.27,-000.03,0000.06,0000.17,0000.00,0000.30,0000.19,-000.04,26.3,03.6,0668.2,34.6
2016-06-17T02:19:00Z,0000380,00000600,0000.77,0000.48,-000.07,0000.08,0000.28,0000.13,0000.09,0000.06,0000.25,26.4,03.6,0668.2,34.6
2016-06-17T02:20:00Z,0000380,00000600,0001.03,0000.15,0000.38,0000.46,0000.13,0000.14,0000.27,0000.11,0000.09,26.5,03.6,0668.2,34.6
2016-06-17T02:21:00Z,0000380,00000600,0001.08,0000.99,0000.09,-000.36,-000.25,-000.02,-000.09,0000.16,-000.04,26.5,03.6,0668.2,34.6
2016-06-17T02:22:00Z,0000380,00000600,0001.58,0000.49,-000.13,0000.51,-000.19,0000.16,0000.07,0000.10,-000.01,26.5,03.7,0668.2,34.6
2016-06-17T02:23:00Z,0000380,00000600,0001.31,0000.13,-000.16,0000.16,-000.03,-000.10,0000.35,0000.13,0000.36,26.5,03.7,0668.2,34.6
2016-06-17T02:24:00Z,0000380,00000600,0001.25,0000.84,0000.02,0000.44,0000.24,0000.03,-000.08,0000.08,0000.01,26.5,03.8,0668.2,34.6
2016-06-17T02:25:00Z,0000380,00000600,0000.84,0000.55,0000.26,-000.09,0000.09,0000.14,-000.03,-000.03,-000.21,26.5,03.8,0668.1,34.6
2016-06-17T02:26:00Z,0000380,00000600,0001.18,0001.28,0000.15,0000.27,0000.02,-000.11,0000.12,0000.06,0000.15,26.5,03.9,0668.1,34.6
2016-06-17T02:27:00Z,0000380,00000600,0001.15,0000.66,0000.00,0000.21,0000.39,0000.22,0000.03,0000.23,0000.14,26.5,03.8,0668.1,34.6
2016-06-17T02:28:00Z,0000380,00000600,0000.60,0001.08,0000.32,-000.24,-000.06,-000.11,0000.10,-000.00,0000.23,26.5,03.9,0668.1,34.6
2016-06-17T02:29:00Z,0000380,00000600,0000.76,0000.50,0000.21,-000.06,-000.02,0000.11,0000.16,0000.25,-000.26,26.5,03.9,0668.2,34.6
2016-06-17T02:30:00Z,0000380,00000600,0000.76,0000.65,0000.30,-000.54,-000.06,-000.05,0000.10,-000.09,0000.19,26.5,03.8,0668.2,34.6
2016-06-17T02:31:00Z,0000380,00000600,0001.37,0000.09,-000.11,0000.36,0000.39,0000.54,0000.31,0000.31,0000.35,26.5,03.9,0668.2,34.6
2016-06-17T02:32:00Z,0000380,00000600,0001.57,0001.09,0000.24,-000.28,0000.00,0000.22,0000.07,0000.15,0000.08,26.4,03.8,0668.2,34.6
2016-06-17T02:33:00Z,0000380,00000600,0001.02,0000.51,0000.25,0000.22,-000.05,0000.00,0000.24,0000.15,0000.08,26.4,03.8,0668.2,34.6
2016-06-17T02:34:00Z,0000380,00000600,0001.25,0001.20,0000.06,-000.32,0000.44,-000.03,-000.08,-000.32,-000.13,26.3,03.9,0668.2,34.6
2016-06-17T02:35:00Z,0000380,00000600,0001.82,0001.07,0000.08,-000.19,0000.24,-000.11,-000.02,0000.13,0000.09,26.3,03.9,0668.2,34.6
2016-06-17T02:36:00Z,0000380,00000600,0001.59,0000.98,0000.44,-000.02,0000.38,0000.33,-000.06,-000.10,-000.14,26.3,03.9,0668.2,34.6
2016-06-17T02:37:00Z,0000380,00000600,0001.35,0000.76,0000.50,-000.25,-000.57,0000.40,-000.11,-000.17,-000.07,26.3,03.8,0668.2,34.6
2016-06-17T02:38:00Z,0000380,00000600,0001.39,0000.83,0000.16,-000.30,0000.05,0000.11,-000.22,0000.19,-000.13,26.3,03.9,0668.2,34.6
2016-06-17T02:39:00Z,0000380,00000600,0001.10,0000.65,0000.32,0000.25,0000.03,0000.24,0000.27,-000.06,0000.22,26.3,03.8,0668.2,34.6
2016-06-17T02:40:00Z,0000380,00000600,0002.04,0000.78,0000.13,-000.11,-000.25,-000.03,-000.03,0000.01,-000.08,26.4,03.8,0668.2,34.6
2016-06-17T02:41:00Z,0000380,00000600,0001.51,0000.92,0000.05,0000.28,0000.20,0000.02,0000.22,-000.00,0000.02,26.4,03.8,0668.2,34.6
2016-06-17T02:42:00Z,0000380,00000600,0001.73,0000.86,0000.13,-000.03,0000.00,0000.46,-000.04,0000.01,0000.33,26.4,03.8,0668.2,34.6
2016-06-17T02:43:00Z,0000380,00000600,0001.23,0001.23,0000.33,-000.02,-000.16,0000.11,0000.24,0000.16,0000.13,26.5,03.7,0668.3,34.6
2016-06-17T02:44:00Z,0000380,00000600,0001.76,0000.89,0000.01,-000.35,0000.54,-000.08,-000.17,-000.03,-000.07,26.5,03.7,0668.3,34.6
2016-06-17T02:45:00Z,0000380,00000600,0001.19,0000.03,0000.25,-000.03,-000.06,0000.02,0000.12,0000.03,-000.03,26.5,03.7,0668.3,34.6
2016-06-17T02:46:00Z,0000380,00000600,0001.62,0001.01,0000.06,0000.43,0000.35,0000.05,0000.07,0000.25,0000.48,26.5,03.6,0668.3,34.6
2016-06-17T02:47:00Z,0000380,00000600,0001.04,0000.73,0000.00,-000.19,0000.27,0000.05,-000.00,0000.00,-000.47,26.5,03.5,0668.3,34.6
2016-06-17T02:48:00Z,0000380,00000600,0002.01,0000.63,0000.14,0000.08,0000.28,0000.03,-000.02,0000.05,0000.39,26.5,03.5,0668.3,34.6
2016-06-17T02:49:00Z,0000380,00000600,0001.40,0000.86,-000.01,-000.28,0000.11,0000.16,-000.08,0000.10,-000.40,26.6,03.5,0668.3,34.6
2016-06-17T02:50:00Z,0000380,00000600,0001.24,0000.45,0000.43,0000.13,0000.13,0000.06,0000.31,0000.13,0000.02,26.5,03.5,0668.3,34.6
2016-06-17T02:51:00Z,0000380,00000600,0001.04,0000.98,0000.62,0000.71,0000.08,0000.44,-000.08,-000.09,0000.15,26.5,03.4,0668.3,34.6
2016-06-17T02:52:00Z,0000380,00000600,0001.46,0000.88,0000.64,-000.32,0000.06,0000.38,0000.17,0000.17,-000.08,26.5,03.4,0668.3,34.6
2016-06-17T02:53:00Z,0000380,00000600,0001.21,0000.94,0000.20,0000.19,0000.50,0000.11,0000.12,-000.08,0000.13,26.5,03.3,0668.3,34.6
2016-06-17T02:54:00Z,0000380,00000600,0001.90,0000.65,0000.53,0000.46,0000.14,0000.38,0000.04,0000.10,0000.05,26.5,03.4,0668.3,34.6
2016-06-17T02:55:00Z,0000380,00000600,0001.62,0001.16,0000.49,0000.21,0000.00,0000.16,-000.12,-000.04,0000.10,26.5,03.3,0668.3,34.6
2016-06-17T02:56:00Z,0000380,00000600,0001.31,0001.32,0000.02,-000.32,0000.25,0000.08,0000.26,0000.06,0000.21,26.5,03.3,0668.3,34.6
2016-06-17T02:57:00Z,0000380,40000600,,,,,,,,,,,,0668.3,34.6
2016-06-17T02:58:00Z,0000380,60000600,,,,,,,,,,26.3,03.3,0667.5,34.6
2016-06-17T02:59:00Z,0000380,20000600,,,,,,,,,,26.3,03.2,0667.5,34.6
2016-06-17T03:00:00Z,0000380,20000600,,,,,,,,,,26.3,03.2,0667.5,34.6
2016-06-17T03:01:00Z,0000380,20000600,,,,,,,,,,26.3,03.2,0667.5,34.6
2016-06-17T03:02:00Z,0000380,20000600,,,,,,,,,,26.3,03.2,0667.5,34.6
2016-06-17T03:03:00Z,0000380,60000600,,,,,,,,,,26.4,03.2,0667.5,34.6
2016-06-17T03:04:00Z,0000380,40000600,0001.84,0000.62,0000.21,-000.27,0000.17,0000.27,0000.08,-000.01,0000.02,26.4,03.3,0668.2,34.6
2016-06-17T03:05:00Z,0000380,00000600,0001.22,0000.93,0000.39,-000.14,0000.13,0000.28,0000.09,0000.10,0000.28,26.4,03.3,0668.3,34.6
2016-06-17T03:06:00Z,0000380,00000600,0001.74,0000.38,0000.46,0000.52,0000.11,-000.11,-000.13,-000.18,-000.17,26.3,03.3,0668.3,34.6
2016-06-17T03:07:00Z,0000380,00000600,0001.23,0000.62,0000.61,0000.08,0000.30,0000.06,0000.15,-000.15,0000.06,26.3,03.2,0668.3,34.6
2016-06-17T03:08:00Z,0000380,00000600,0001.95,0000.60,0000.40,-000.62,0000.41,-000.14,0000.04,0000.35,0000.09,26.3,03.3,0668.3,34.6
2016-06-17T03:09:00Z,0000380,00000600,0001.29,0000.91,0000.72,-000.33,0000.55,0000.38,0000.01,-000.06,-000.05,26.3,03.3,0668.3,34.6
2016-06-17T03:10:00Z,0000380,00000600,0001.29,0000.81,0000.57,0000.27,0000.06,0000.06,0000.10,0000.03,0000.29,26.3,03.3,0668.2,34.6
2016-06-17T03:11:00Z,0000380,00000600,0001.39,0000.74,0000.95,-000.22,-000.30,0000.02,0000.16,0000.02,-000.16,26.3,03.2,0668.2,34.6
2016-06-17T03:12:00Z,0000380,00000600,0001.31,0000.71,0000.18,0000.14,0000.17,-000.38,-000.05,0000.20,-000.11,26.3,03.3,0668.2,34.6